• Em Portugal
  • Lista de países
  • Para 7 dias
  • Temperatura da água
  • Mapas de satélite
  • Mapa do tempo
  • Widgets de tempo
  • user-avatar
    Iniciar Sessão

    Previsão horária em Francistown

    Hoje, 20 Janeiro, Sábado

    Tempo Temperatura Precipitação Vento Pressão Humidade
    00:00 +22°C° 0 mm 4 m/s 675 mmHg 38%
    01:00 +21°C° 0 mm 4 m/s 675 mmHg 42%
    02:00 +21°C° 0 mm 4 m/s 675 mmHg 45%
    03:00 +20°C° 0 mm 3 m/s 675 mmHg 49%
    04:00 +19°C° 0 mm 3 m/s 675 mmHg 53%
    05:00 +19°C° 0 mm 2 m/s 675 mmHg 57%
    06:00 +20°C° 0 mm 3 m/s 675 mmHg 52%
    07:00 +22°C° 0 mm 3 m/s 676 mmHg 47%
    08:00 +25°C° 0 mm 4 m/s 677 mmHg 40%
    09:00 +28°C° 0 mm 4 m/s 677 mmHg 33%
    10:00 +30°C° 0 mm 4 m/s 677 mmHg 27%
    11:00 +33°C° 0 mm 4 m/s 677 mmHg 20%
    12:00 +34°C° 0 mm 4 m/s 676 mmHg 18%
    13:00 +35°C° 0 mm 5 m/s 676 mmHg 16%
    14:00 +37°C° 0 mm 5 m/s 675 mmHg 13%
    15:00 +37°C° 0 mm 5 m/s 675 mmHg 13%
    16:00 +36°C° 0 mm 5 m/s 675 mmHg 14%
    17:00 +36°C° 0 mm 5 m/s 674 mmHg 14%
    18:00 +34°C° 0 mm 5 m/s 674 mmHg 18%
    19:00 +30°C° 0 mm 4 m/s 674 mmHg 21%
    20:00 +28°C° 0 mm 4 m/s 674 mmHg 24%
    21:00 +27°C° 0 mm 4 m/s 675 mmHg 26%
    22:00 +27°C° 0 mm 4 m/s 675 mmHg 27%
    23:00 +26°C° 0 mm 4 m/s 675 mmHg 29%

    Amanhã, 21 Janeiro, Domingo

    Tempo Temperatura Precipitação Vento Pressão Humidade
    00:00 +25°C° 0 mm 4 m/s 675 mmHg 32%
    01:00 +25°C° 0 mm 4 m/s 675 mmHg 34%
    02:00 +23°C° 0 mm 4 m/s 675 mmHg 37%
    03:00 +23°C° 0 mm 4 m/s 675 mmHg 39%
    04:00 +22°C° 0 mm 4 m/s 675 mmHg 42%
    05:00 +21°C° 0 mm 4 m/s 675 mmHg 44%
    06:00 +23°C° 0 mm 4 m/s 676 mmHg 41%
    07:00 +25°C° 0 mm 4 m/s 676 mmHg 38%
    08:00 +27°C° 0 mm 5 m/s 677 mmHg 35%
    09:00 +29°C° 0 mm 5 m/s 677 mmHg 30%
    10:00 +33°C° 0 mm 5 m/s 678 mmHg 25%
    11:00 +35°C° 0 mm 5 m/s 678 mmHg 20%
    12:00 +36°C° 0 mm 5 m/s 677 mmHg 19%
    13:00 +37°C° 0 mm 5 m/s 677 mmHg 17%
    14:00 +38°C° 0 mm 4 m/s 676 mmHg 16%
    15:00 +39°C° 0 mm 5 m/s 676 mmHg 16%
    16:00 +37°C° 0 mm 5 m/s 675 mmHg 17%
    17:00 +38°C° 0 mm 6 m/s 675 mmHg 17%
    18:00 +35°C° 0 mm 6 m/s 675 mmHg 21%
    19:00 +33°C° 0 mm 6 m/s 675 mmHg 25%
    20:00 +30°C° 0 mm 6 m/s 675 mmHg 29%
    21:00 +29°C° 0 mm 6 m/s 675 mmHg 31%
    22:00 +28°C° 0 mm 7 m/s 676 mmHg 34%
    23:00 +27°C° 0 mm 7 m/s 676 mmHg 37%

    Depois de amanhã, 22 Janeiro, Segunda-feira

    Tempo Temperatura Precipitação Vento Pressão Humidade
    00:00 +27°C° 0 mm 7 m/s 676 mmHg 39%
    01:00 +26°C° 0 mm 6 m/s 675 mmHg 40%
    02:00 +24°C° 0 mm 6 m/s 675 mmHg 42%
    03:00 +23°C° 0 mm 5 m/s 675 mmHg 43%
    04:00 +22°C° 0 mm 4 m/s 675 mmHg 45%
    05:00 +22°C° 0 mm 3 m/s 676 mmHg 47%
    06:00 +23°C° 0 mm 4 m/s 676 mmHg 45%
    07:00 +25°C° 0 mm 4 m/s 677 mmHg 43%
    08:00 +26°C° 0 mm 5 m/s 677 mmHg 41%
    09:00 +28°C° 0 mm 5 m/s 677 mmHg 35%
    10:00 +32°C° 0 mm 4 m/s 677 mmHg 30%
    11:00 +34°C° 0 mm 4 m/s 677 mmHg 24%
    12:00 +35°C° 0 mm 4 m/s 677 mmHg 22%
    13:00 +36°C° 0 mm 4 m/s 676 mmHg 20%
    14:00 +38°C° 0 mm 3 m/s 675 mmHg 18%
    15:00 +38°C° 0 mm 4 m/s 675 mmHg 18%
    16:00 +38°C° 0 mm 4 m/s 674 mmHg 19%
    17:00 +37°C° 0 mm 4 m/s 674 mmHg 19%
    18:00 +35°C° 0 mm 4 m/s 674 mmHg 24%
    19:00 +34°C° 0 mm 5 m/s 674 mmHg 28%
    20:00 +32°C° 0 mm 5 m/s 674 mmHg 33%
    21:00 +30°C° 0 mm 6 m/s 675 mmHg 36%
    22:00 +29°C° 0 mm 6 m/s 675 mmHg 39%
    23:00 +28°C° 0 mm 6 m/s 675 mmHg 43%

    23 Janeiro, Terça-feira

    Tempo Temperatura Precipitação Vento Pressão Humidade
    00:00 +27°C° 0 mm 6 m/s 675 mmHg 45%
    01:00 +26°C° 0 mm 5 m/s 674 mmHg 48%
    02:00 +25°C° 0 mm 4 m/s 674 mmHg 50%
    03:00 +25°C° 0 mm 3 m/s 674 mmHg 52%
    04:00 +24°C° 0 mm 3 m/s 674 mmHg 54%
    05:00 +23°C° 0 mm 2 m/s 674 mmHg 56%
    06:00 +25°C° 0 mm 3 m/s 675 mmHg 52%
    07:00 +26°C° 0 mm 3 m/s 675 mmHg 47%
    08:00 +27°C° 0 mm 4 m/s 676 mmHg 43%
    09:00 +30°C° 0 mm 4 m/s 676 mmHg 37%
    10:00 +33°C° 0 mm 4 m/s 676 mmHg 31%
    11:00 +36°C° 0 mm 4 m/s 676 mmHg 25%
    12:00 +36°C° 0 mm 4 m/s 675 mmHg 23%
    13:00 +37°C° 0 mm 3 m/s 675 mmHg 22%
    14:00 +38°C° 0 mm 3 m/s 674 mmHg 20%
    15:00 +37°C° 0 mm 3 m/s 674 mmHg 20%
    16:00 +37°C° 0 mm 2 m/s 673 mmHg 21%
    17:00 +37°C° 0 mm 2 m/s 673 mmHg 21%
    18:00 +35°C° 0 mm 2 m/s 673 mmHg 23%
    19:00 +34°C° 0 mm 2 m/s 673 mmHg 25%
    20:00 +32°C° 0 mm 2 m/s 673 mmHg 27%
    21:00 +31°C° 0 mm 2 m/s 674 mmHg 29%
    22:00 +30°C° 0 mm 2 m/s 674 mmHg 31%
    23:00 +29°C° 0 mm 3 m/s 674 mmHg 34%

    24 Janeiro, Quarta-feira

    Tempo Temperatura Precipitação Vento Pressão Humidade
    00:00 +28°C° 0 mm 3 m/s 674 mmHg 35%
    01:00 +27°C° 0 mm 3 m/s 673 mmHg 37%
    02:00 +26°C° 0 mm 3 m/s 673 mmHg 38%
    03:00 +25°C° 0 mm 3 m/s 673 mmHg 39%
    04:00 +25°C° 0 mm 2 m/s 673 mmHg 40%
    05:00 +24°C° 0 mm 2 m/s 673 mmHg 41%
    06:00 +26°C° 0 mm 3 m/s 674 mmHg 37%
    07:00 +28°C° 0 mm 3 m/s 675 mmHg 34%
    08:00 +29°C° 0 mm 3 m/s 676 mmHg 31%
    09:00 +31°C° 0 mm 3 m/s 676 mmHg 28%
    10:00 +35°C° 0 mm 3 m/s 676 mmHg 26%
    11:00 +37°C° 0 mm 2 m/s 676 mmHg 23%
    12:00 +37°C° 0 mm 2 m/s 675 mmHg 24%
    13:00 +36°C° 0 mm 1 m/s 674 mmHg 24%
    14:00 +35°C° 0 mm 1 m/s 674 mmHg 24%
    15:00 +35°C° 0 mm 1 m/s 674 mmHg 24%
    16:00 +36°C° 0 mm 2 m/s 673 mmHg 24%
    17:00 +36°C° 0 mm 2 m/s 673 mmHg 25%
    18:00 +34°C° 0 mm 2 m/s 673 mmHg 29%
    19:00 +31°C° 0 mm 3 m/s 674 mmHg 34%
    20:00 +29°C° 0 mm 3 m/s 674 mmHg 38%
    21:00 +28°C° 0 mm 3 m/s 674 mmHg 42%
    22:00 +27°C° 0 mm 2 m/s 674 mmHg 47%
    23:00 +26°C° 0 mm 2 m/s 674 mmHg 51%

    25 Janeiro, Quinta-feira

    Tempo Temperatura Precipitação Vento Pressão Humidade
    00:00 +26°C° 0 mm 2 m/s 674 mmHg 52%
    01:00 +26°C° 0 mm 1 m/s 673 mmHg 53%
    02:00 +25°C° 0 mm 1 m/s 673 mmHg 54%
    03:00 +25°C° 0 mm 1 m/s 673 mmHg 55%
    04:00 +25°C° 0 mm 1 m/s 674 mmHg 56%
    05:00 +24°C° 0 mm 1 m/s 674 mmHg 56%
    06:00 +26°C° 0 mm 2 m/s 675 mmHg 52%
    07:00 +27°C° 0 mm 2 m/s 675 mmHg 47%
    08:00 +28°C° 0 mm 3 m/s 676 mmHg 42%
    09:00 +30°C° 0 mm 3 m/s 676 mmHg 37%
    10:00 +34°C° 0 mm 3 m/s 676 mmHg 31%
    11:00 +36°C° 0 mm 4 m/s 677 mmHg 26%
    12:00 +36°C° 0 mm 4 m/s 676 mmHg 27%
    13:00 +36°C° 0 mm 4 m/s 675 mmHg 27%
    14:00 +36°C° 0 mm 4 m/s 675 mmHg 27%
    15:00 +35°C° 0 mm 4 m/s 675 mmHg 28%
    16:00 +35°C° 0 mm 4 m/s 675 mmHg 29%
    17:00 +34°C° 0 mm 4 m/s 674 mmHg 30%
    18:00 +33°C° 0,3 mm 3 m/s 674 mmHg 35%
    19:00 +30°C° 0,3 mm 3 m/s 675 mmHg 40%
    20:00 +29°C° 0,3 mm 2 m/s 675 mmHg 44%
    21:00 +28°C° 0,2 mm 3 m/s 675 mmHg 48%
    22:00 +27°C° 0,2 mm 4 m/s 675 mmHg 52%
    23:00 +27°C° 0,2 mm 5 m/s 675 mmHg 56%
    Mostrar mais